Regional Weather Roundup
Issued by NWS

Home | Current Version | Previous Version | Graphics & Text | Print | Product List | Glossary On
Versions: 1 2 3 4 5 6 7 8 9 10 11 12 13 14 15 16 17 18 19 20 21 22 23 24 25 26 27
000
ASUS45 KTFX 191410
RWRMT
MONTANA REGIONAL WEATHER ROUNDUP
NATIONAL WEATHER SERVICE GREAT FALLS MT
800 AM MDT SAT AUG 19 2017

NOTE: "FAIR" INDICATES FEW OR NO CLOUDS BELOW 12000 FEET WITH NO
SIGNIFICANT WEATHER AND/OR OBSTRUCTIONS TO VISIBILITY.

MTZ001>007-043-191500-
WEST OF THE DIVIDE

CITY           SKY/WX    TMP DP  RH WIND       PRES   REMARKS
KALISPELL      SUNNY     54  45  71 NE3       29.96R
MISSOULA       SUNNY     56  38  50 CALM      30.03R
BUTTE          MOSUNNY   50  30  46 CALM      30.13R
MULLAN PASS    SUNNY     49  37  63 SW7       30.13R
ANACONDA         N/A     57  30  35 CALM      30.10R
DEER LODGE       N/A     55  34  44 W5        30.10S
EUREKA           N/A     57  37  47 MISG      29.93R
HAMILTON         N/A     59  39  47 CALM      30.04R
LIBBY            N/A     54  39  58 CALM      29.95R
RONAN            N/A     54  40  59 CALM      30.05R
$$

MTZ008-052>055-191500-
SOUTHWEST MONTANA

CITY           SKY/WX    TMP DP  RH WIND       PRES   REMARKS
BOZEMAN        MOSUNNY   55  39  54 S6        30.06R
DILLON         PTSUNNY   53  38  56 SW10      30.09R
W YELLOWSTONE  CLOUDY    45  36  70 CALM      30.22R
ENNIS          CLOUDY    55  37  50 SW5       30.15R
THREE FORKS      N/A     49  41  74 CALM      30.04R
TWIN BRIDGES     N/A     56  37  48 CALM      30.07R
$$

MTZ009-010-012-014-046-048-049-054-191500-
EAST SLOPES AND CENTRAL MONTANA

CITY           SKY/WX    TMP DP  RH WIND       PRES   REMARKS
CUT BANK       MOSUNNY   49  41  74 NW8       30.05R
GREAT FALLS    SUNNY     57  45  64 N14       30.03R
MALMSTROM AFB  SUNNY     58  45  62 N9        30.03R
HELENA         MOSUNNY   68  33  27 W7        30.03R HAZE
AUGUSTA          N/A     53  45  73 N20G26    30.04R
BOWMANS CRNR     N/A     53  44  71 NE20      30.03R
CHOTEAU          N/A     54  43  66 N12       30.06S
FAIRFIELD        N/A     54  44  68 N13       30.03
POWER            N/A     53  42  65 N15G25    30.03R
RAYNESFORD       N/A     60  35  40 W7        30.03R
ULM              N/A     58  46  63 N17       30.03R
$$

MTZ011-013-016-021-045-047-050-051-191500-
NORTH CENTRAL MONTANA

CITY           SKY/WX    TMP DP  RH WIND       PRES   REMARKS
HAVRE          SUNNY     57  44  62 NW10      29.97R
LEWISTOWN      SUNNY     60  34  37 NW5       29.99R
N BAR RANCH      N/A     70  30  23 NW12      30.01R
CHINOOK          N/A     61  45  55 W10G18    29.95R
DENTON           N/A     58  46  63 NW14G25   29.95R
GEYSER           N/A     57  43  59 N13       30.00R
GRASS RANGE      N/A     66  30  25 NW10      29.93R
JUDITH GAP       N/A     66  32  27 W10G18    30.00R
WINIFRED         N/A     64  33  31 NW12      29.96R
$$

MTZ017>020-022>027-061-062-191500-
NORTHEAST MONTANA

CITY           SKY/WX    TMP DP  RH WIND       PRES   REMARKS
GLASGOW        SUNNY     67  38  34 NW17G23   29.80R
JORDAN           N/A     64  32  30 W9        29.84R
SIDNEY         MOSUNNY   60  52  74 S8        29.75F
WOLF POINT     MOSUNNY   62  47  57 SW8       29.76R
MALTA          SUNNY     61  46  59 VRB6G14   29.88R
PLENTYWOOD       N/A     64  50  59 CALM      29.73S
POPLAR           N/A     59  46  63 W6        29.75S
$$

MTZ028>42-056>058-191500-
SOUTHCENTRAL AND SOUTHEAST MONTANA

CITY           SKY/WX    TMP DP  RH WIND       PRES   REMARKS
BAKER          MOSUNNY   68  42  38 W12       29.84R
BILLINGS       PTSUNNY   68  29  23 SW9       29.95R
LIVINGSTON     MOSUNNY   51  38  60 W6        30.03S
MILES CITY     MOSUNNY   60  37  42 SE3       29.85R
BIG TIMBER     SUNNY     64  32  29 W17       30.03R
HARLOWTON      PTSUNNY   62  31  30 MISG      29.99R
LAUREL           N/A     60  37  42 SW1       29.95S
$$

REGIONAL REPORTS...DAKOTAS

CITY           SKY/WX    TMP DP  RH WIND       PRES   REMARKS
WILLISTON      SUNNY     67  52  58 S7        29.74S
MINOT          SUNNY     71  55  56 SW7       29.74F
DICKINSON      MOSUNNY   64  53  67 S13       29.78F
BEACH            N/A     68  41  37 SW15      29.82S
CROSBY           N/A     68  52  56 S16       29.71S
TIOGA            N/A     66  61  82 S7        29.76F
WATFORD CITY     N/A     68  52  56 S6        29.74F
BISMARCK       SUNNY     65  60  84 SE9       29.82F
GRAND FORKS    SUNNY     66  60  81 S8        29.83S
FARGO          SUNNY     65  60  84 S7        29.88S
BUFFALO SD       N/A     60  49  66 CALM      29.80S
RAPID CITY     SUNNY     66  51  58 CALM      29.88F
$$

REGIONAL REPORTS...WYOMING/IDAHO/WASHINGTON

CITY           SKY/WX    TMP DP  RH WIND       PRES   REMARKS
GILLETTE         N/A     74  37  26 W9        29.97R
SHERIDAN       PTSUNNY   64  45  49 S5        29.98S
BUFFALO WY     SUNNY     76  31  19 NW9       30.05R
CODY           SUNNY     66  37  34 MISG      30.07R
YELLOWSTONE LA   N/A     42  39  89 CALM      30.30R
IDAHO FALLS    MOSUNNY   57  37  47 SW5       30.10R
SALMON         CLOUDY    53  43  68 CALM      30.08R
BOISE          SUNNY     59  32  36 SE5       30.03R
SPOKANE        PTSUNNY   54  45  71 S7        30.03R
$$

REGIONAL REPORTS...ALBERTA

CITY           SKY/WX    TMP DP  RH WIND       PRES   REMARKS
EDMONTON       SUNNY     50  41  71 W9        29.91R
CALGARY        PTSUNNY   52  37  58 W6        30.01R
LETHBRIDGE     PTSUNNY   52  43  71 W12G18    30.03R
$$

REGIONAL REPORTS...SASKATCHEWAN

CITY           SKY/WX    TMP DP  RH WIND       PRES   REMARKS
SWIFT CURRENT  SUNNY     55  45  67 NW20G28   29.84R
REGINA         MOSUNNY   68  46  45 W14       29.66R
SASKATOON      PTSUNNY   59  50  72 NW15G22   29.72R
$$




USA.gov is the U.S. government's official web portal to all federal, state and local government web resources and services.